sat.trackr.live / text

‹ back to catalog

STARLINK-30072

NORAD 57501 · 2023-113G

PAYLOAD ACTIVE UNKNOWN

§ Identity

Operator
Country
US
Launch date
2023-08-07
Launch site
AFETR
Launch vehicle
Mass (kg)
RCS (m²)

Purposes: comms

External: N2YO · Heavens-Above · Gunter

§ Orbital elements

Epoch: 2026-09-20T22:40:57.478944Z

Period
94.27 min
Inclination
43.0019°
Eccentricity
0.0000822
Mean motion
15.27584420 rev/d
Perigee alt
482.5 km
Apogee alt
483.6 km
Semi-major
6,861.2 km
B*
-7.5173e-6
RAAN
353.6429°
Arg perigee
290.0377°
Mean anomaly
70.0386°
Rev number
17,342

§ Raw data

STARLINK-300721 57501U 23113G   26263.94510971 -.00000469  00000+0 -75173-5 0  99912 57501  43.0019 353.6429 0000822 290.0377  70.0386 15.27584420173428

JSON: /api/v1/satellites/57501 · /tle

For live sub-satellite position, see the globe view (requires WebGL).

§ Visibility from observer

Set your observer location to see the next 7 days of passes ≥ 10°. The values pass through the URL so the page stays shareable.

No JS? Fill the form by hand. The geolocation button needs JavaScript.